EW4224 Weather Reports


time (UTC)temp
C
wind
direction
speed
KPH
gust
KPH
rain 1hr
cm
rain 24hr
cm
rain mn
cm
humidity
%
barometer
mb
20260906130903 21 269 8.0 17.7 0.00 0.00 0.00 93 1049.8
20260906130003 20 272 9.7 16.1 0.00 0.00 0.00 94 1049.8
20260906125403 20 274 8.0 16.1 0.00 0.00 0.00 95 1050.0
20260906124503 20 272 8.0 16.1 0.00 0.00 0.00 96 1049.5
20260906123603 20 274 4.8 16.1 0.00 0.00 0.00 97 1049.5
20260906122703 20 303 3.2 6.4 0.00 0.00 0.00 97 1049.5
20260906121803 19 313 3.2 6.4 0.00 0.00 0.00 98 1049.6
20260906120903 19 306 3.2 6.4 0.00 0.00 0.00 99 1049.4
20260906120003 19 270 3.2 11.3 0.00 0.00 0.00 99 1049.2
20260906115403 19 267 3.2 11.3 0.00 0.00 0.00 99 1049.1
20260906114503 19 32 4.8 12.9 0.00 0.00 0.00 99 1049.0
20260906113603 19 349 3.2 8.0 0.00 0.00 0.00 99 1048.8
20260906112703 19 55 3.2 6.4 0.00 0.00 0.00 99 1048.8
20260906111803 19 295 3.2 6.4 0.00 0.00 0.00 99 1048.6
20260906110903 19 11 3.2 8.0 0.00 0.00 0.00 99 1048.6
20260906110003 19 23 3.2 11.3 0.00 0.00 0.00 99 1048.5
20260906105403 19 36 3.2 6.4 0.00 0.00 0.00 99 1048.4
20260906104503 19 18 3.2 6.4 0.00 0.00 0.00 99 1048.6
20260906103603 19 23 3.2 6.4 0.00 0.00 0.00 99 1048.3
20260906102703 19 5 4.8 9.7 0.00 0.00 0.00 98 1048.2
20260906101803 18 9 3.2 8.0 0.00 0.00 0.00 98 1048.0
20260906101113 18 5 3.2 11.3 0.00 0.00 0.00 98 1048.1
20260906100003 18 8 4.8 11.3 0.00 0.00 0.00 98 1048.1
20260906095403 18 15 3.2 9.7 0.00 0.00 0.00 98 1048.0
20260906094504 18 10 3.2 8.0 0.00 0.00 0.00 98 1048.0
20260906093603 19 10 3.2 8.0 0.00 0.00 0.00 98 1047.9
20260906092914 19 10 3.2 11.3 0.00 0.00 0.00 97 1047.8
20260906091803 19 6 6.4 12.9 0.00 0.00 0.00 98 1047.9
20260906090903 19 6 3.2 9.7 0.00 0.00 0.00 97 1048.0
20260906090004 19 344 3.2 8.0 0.00 0.00 0.00 98 1048.0
20260906085403 19 173 3.2 8.0 0.00 0.00 0.00 98 1047.9
20260906084503 19 356 3.2 9.7 0.00 0.00 0.00 97 1047.9
20260906083603 19 358 4.8 6.4 0.00 0.00 0.00 97 1047.8
20260906082703 19 358 4.8 6.4 0.00 0.00 0.00 97 1047.9
20260906082013 19 354 4.8 11.3 0.00 0.00 0.00 97 1047.7
20260906080903 20 358 3.2 8.0 0.00 0.00 0.00 97 1048.1
20260906080214 20 344 3.2 8.0 0.00 0.00 0.00 97 1048.0
20260906075403 20 165 1.6 3.2 0.00 0.00 0.00 96 1048.0
20260906074503 20 159 1.6 8.0 0.00 0.00 0.00 96 1048.1
20260906073603 20 94 1.6 8.0 0.00 0.00 0.00 96 1048.0
20260906072703 20 86 1.6 3.2 0.00 0.00 0.00 95 1048.0
20260906071803 20 87 0.0 3.2 0.00 0.00 0.00 95 1048.1
20260906070903 20 92 1.6 3.2 0.00 0.00 0.00 95 1048.2
20260906070213 20 85 0.0 3.2 0.00 0.00 0.00 95 1048.3
20260906065613 20 86 1.6 3.2 0.00 0.00 0.00 94 1048.1
20260906064503 20 64 0.0 3.2 0.00 0.00 0.00 94 1048.2
20260906063813 20 53 0.0 3.2 0.00 0.00 0.00 93 1048.0
20260906062913 21 51 0.0 3.2 0.00 0.00 0.00 93 1048.1
20260906061803 21 61 0.0 3.2 0.00 0.00 0.00 92 1048.2
20260906060903 21 44 1.6 3.2 0.00 0.00 0.00 91 1048.1
20260906060213 21 56 1.6 3.2 0.00 0.00 0.00 91 1048.1
20260906055403 21 90 1.6 4.8 0.00 0.00 0.00 91 1048.0
20260906054714 21 107 1.6 6.4 0.00 0.00 0.00 91 1048.1
20260906053603 21 149 3.2 8.0 0.00 0.00 0.00 90 1047.8
20260906052703 21 101 4.8 17.7 0.00 0.00 0.00 90 1048.1
20260906051803 21 91 12.9 20.9 0.00 0.00 0.00 90 1047.8
20260906051113 21 80 11.3 19.3 0.00 0.00 0.00 90 1047.8
20260906050003 21 74 6.4 9.7 0.00 0.00 0.00 90 1047.6
20260906045403 21 74 4.8 8.0 0.00 0.00 0.00 90 1047.4
20260906044503 21 82 4.8 6.4 0.00 0.00 0.00 90 1047.6
20260906043603 21 77 4.8 6.4 0.00 0.00 0.00 89 1047.7
20260906042914 21 81 4.8 6.4 0.00 0.00 0.00 89 1047.6
20260906042013 21 82 4.8 6.4 0.00 0.00 0.00 89 1047.5
20260906041113 21 83 4.8 6.4 0.00 0.00 0.00 89 1047.3
20260906040003 21 82 4.8 6.4 0.00 0.00 0.00 89 1047.3
20260906035403 21 83 4.8 8.0 0.00 0.00 0.00 89 1046.9
20260906034503 21 77 6.4 8.0 0.00 0.00 0.00 88 1046.9
20260906033812 21 85 4.8 8.0 0.00 0.00 0.00 89 1047.1
20260906032703 21 86 6.4 8.0 0.00 0.00 0.00 88 1047.0
20260906031803 22 91 6.4 8.0 0.00 0.00 0.00 88 1046.9
20260906030903 22 88 6.4 9.7 0.00 0.00 0.00 88 1047.0
20260906030003 22 87 8.0 9.7 0.00 0.00 0.00 88 1046.7
20260906025613 22 87 8.0 9.7 0.00 0.00 0.00 88 1046.9
20260906024503 22 96 9.7 24.1 0.00 0.00 0.00 87 1046.7
20260906023603 22 103 12.9 24.1 0.00 0.00 0.00 86 1046.8
20260906022703 22 107 14.5 25.7 0.00 0.00 0.00 86 1046.8
20260906022013 22 227 19.3 25.7 0.00 0.00 0.00 86 1046.8
20260906021114 22 243 20.9 25.7 0.00 0.00 0.00 86 1046.7
20260906020003 22 243 20.9 25.7 0.00 0.00 0.00 86 1046.9
20260906015403 22 243 20.9 25.7 0.00 0.00 0.00 86 1046.7
20260906014503 22 243 20.9 25.7 0.00 0.00 0.00 86 1046.8
20260906013603 22 243 20.9 25.7 0.00 0.00 0.00 86 1046.7
20260906012703 22 243 20.9 32.2 0.00 0.00 0.00 85 1046.9
20260906011803 22 239 25.7 37.0 0.00 0.00 0.00 85 1046.9
20260906010903 22 243 20.9 29.0 0.00 0.00 0.00 86 1046.8
20260906010003 22 241 17.7 29.0 0.00 0.00 0.00 87 1046.7
20260906005403 22 250 9.7 22.5 0.00 0.00 0.00 86 1046.7
20260906004503 23 270 1.6 6.4 0.00 0.00 0.00 85 1046.7
20260906003603 23 334 1.6 3.2 0.00 0.00 0.00 84 1046.4
20260906002703 24 338 3.2 6.4 0.00 0.00 0.00 82 1046.2
20260906002014 24 342 3.2 9.7 0.00 0.00 0.00 82 1046.3
20260906000903 24 341 3.2 14.5 0.00 0.00 0.00 82 1046.1
20260906000003 25 296 4.8 14.5 0.00 0.00 0.00 81 1046.0
20260905235403 25 280 8.0 12.9 0.00 0.00 0.00 81 1045.7
20260905234503 25 279 6.4 12.9 0.00 0.00 0.00 80 1045.4
20260905233813 25 338 6.4 14.5 0.00 0.00 0.00 79 1045.6
20260905232703 26 20 1.6 8.0 0.00 0.00 0.00 77 1045.3
20260905231803 26 325 4.8 20.9 0.00 0.00 0.00 76 1045.6
20260905230903 26 337 11.3 25.7 0.00 0.00 0.00 75 1045.2
20260905230003 27 54 12.9 24.1 0.00 0.00 0.00 74 1045.2
20260905225403 27 28 11.3 24.1 0.00 0.00 0.00 72 1045.2
20260905224503 27 353 11.3 22.5 0.00 0.00 0.00 72 1044.9
20260905223603 27 41 9.7 22.5 0.00 0.00 0.00 70 1044.9
20260905222703 27 22 8.0 19.3 0.00 0.00 0.00 70 1044.7
20260905221803 27 23 6.4 19.3 0.00 0.00 0.00 70 1044.8
20260905220903 27 14 4.8 9.7 0.00 0.00 0.00 72 1044.9
20260905220003 27 356 4.8 12.9 0.00 0.00 0.00 71 1044.9
20260905215403 27 3 4.8 12.9 0.00 0.00 0.00 73 1045.0
20260905214503 27 54 8.0 19.3 0.00 0.00 0.00 73 1044.8
20260905213603 27 59 9.7 19.3 0.00 0.00 0.00 72 1045.0
20260905212703 27 68 8.0 17.7 0.00 0.00 0.00 72 1045.1
20260905211803 27 65 8.0 17.7 0.00 0.00 0.00 73 1045.1
20260905210903 27 60 4.8 12.9 0.00 0.00 0.00 74 1045.0
20260905210214 27 53 4.8 11.3 0.00 0.00 0.00 76 1045.2
20260905205403 27 87 8.0 16.1 0.00 0.00 0.00 75 1045.1
20260905204712 27 82 6.4 14.5 0.00 0.00 0.00 75 1045.2
20260905203603 26 60 4.8 12.9 0.00 0.00 0.00 77 1045.4
20260905202913 27 56 3.2 12.9 0.00 0.00 0.00 76 1045.6
20260905201803 26 171 9.7 16.1 0.00 0.00 0.00 78 1045.6
20260905200903 26 295 6.4 16.1 0.00 0.00 0.00 79 1045.8
20260905200003 26 335 9.7 22.5 0.00 0.00 0.00 80 1045.6
20260905195403 26 341 11.3 24.1 0.00 0.00 0.00 81 1045.7
20260905194503 26 321 14.5 24.1 0.00 0.00 0.00 80 1045.7
20260905193603 26 68 8.0 22.5 0.00 0.00 0.00 80 1045.8
20260905192703 26 87 6.4 17.7 0.00 0.00 0.00 80 1045.6
20260905191803 26 75 6.4 16.1 0.00 0.00 0.00 79 1045.3
20260905190903 27 60 6.4 33.8 0.00 0.00 0.00 79 1045.4
20260905190003 27 72 9.7 33.8 0.00 0.00 0.00 79 1045.6
20260905185614 27 62 8.0 20.9 0.00 0.00 0.00 78 1045.6
20260905184503 27 77 9.7 20.9 0.00 0.00 0.00 77 1045.6
20260905183603 27 56 8.0 19.3 0.00 0.00 0.00 77 1045.7
20260905182703 27 48 9.7 19.3 0.00 0.00 0.00 77 1045.6
20260905181803 27 79 9.7 20.9 0.00 0.00 0.00 78 1045.7
20260905180903 28 49 9.7 35.4 0.00 0.00 0.00 75 1045.8
20260905180003 28 67 8.0 14.5 0.00 0.00 0.00 77 1045.4
20260905175403 27 66 6.4 11.3 0.00 0.00 0.00 77 1045.4
20260905174503 27 71 4.8 12.9 0.00 0.00 0.00 78 1045.4
20260905173603 28 58 3.2 8.0 0.00 0.00 0.00 75 1045.4
20260905172914 28 45 4.8 8.0 0.00 0.00 0.00 77 1045.4
20260905171803 27 71 6.4 14.5 0.00 0.00 0.00 78 1045.6
20260905170903 27 57 6.4 19.3 0.00 0.00 0.00 78 1045.6
20260905170003 27 13 6.4 11.3 0.00 0.00 0.00 80 1045.7
20260905165403 27 37 8.0 17.7 0.00 0.00 0.00 80 1046.0
20260905164713 27 73 8.0 12.9 0.00 0.00 0.00 80 1045.9
20260905163814 27 72 4.8 11.3 0.00 0.00 0.00 80 1045.9
20260905162703 27 31 3.2 14.5 0.00 0.00 0.00 80 1045.7
20260905161803 27 48 9.7 20.9 0.00 0.00 0.00 81 1045.8
20260905161114 26 56 11.3 20.9 0.00 0.00 0.00 83 1045.7
20260905160003 26 36 9.7 24.1 0.00 0.00 0.00 82 1045.9
20260905155403 27 59 17.7 24.1 0.00 0.00 0.00 82 1045.8
20260905154503 26 63 11.3 24.1 0.00 0.00 0.00 84 1045.9
20260905153603 26 305 8.0 17.7 0.00 0.00 0.00 85 1045.6
20260905152913 25 329 9.7 22.5 0.00 0.00 0.00 86 1045.7
20260905151803 24 290 4.8 17.7 0.00 0.00 0.00 89 1045.7
20260905150903 24 307 3.2 9.7 0.00 0.00 0.00 89 1045.4
20260905150003 24 327 4.8 8.0 0.00 0.00 0.00 89 1045.3
20260905145403 24 349 3.2 11.3 0.00 0.00 0.00 90 1045.2
20260905144503 23 295 6.4 14.5 0.00 0.00 0.00 93 1045.1
20260905143603 23 293 6.4 14.5 0.00 0.00 0.00 94 1045.1
20260905142703 23 299 4.8 14.5 0.00 0.00 0.00 94 1045.0
20260905141803 23 308 3.2 9.7 0.00 0.00 0.00 95 1045.2
20260905141113 23 327 3.2 9.7 0.00 0.00 0.00 95 1045.0
20260905140004 23 319 3.2 6.4 0.00 0.00 0.00 95 1045.1
20260905135403 23 333 3.2 8.0 0.00 0.00 0.00 96 1044.9
20260905134503 23 325 3.2 8.0 0.00 0.00 0.00 95 1044.7
20260905133813 23 72 4.8 20.9 0.00 0.00 0.00 95 1044.7
20260905132703 23 88 9.7 22.5 0.00 0.00 0.00 95 1044.9
20260905131803 24 29 4.8 17.7 0.00 0.00 0.00 93 1044.9